Regional Weather Roundup
Issued by NWS

Home | Current Version | Previous Version | Graphics & Text | Print | Product List | Glossary On
Versions: 1 2 3 4 5 6 7 8 9 10 11 12 13 14 15 16 17 18 19 20 21 22 23 24 25 26 27 28 29 30 31 32 33 34 35 36 37 38 39 40 41 42 43 44 45 46 47 48 49 50
193
ASUS43 KDTX 211110
RWRMI
MICHIGAN HOURLY REGIONAL WEATHER ROUNDUP
NATIONAL WEATHER SERVICE DETROIT/PONTIAC MI
700 AM EDT FRI JUL 21 2017

NOTE: "FAIR" INDICATES FEW OR NO CLOUDS BELOW 12,000 FEET WITH NO
SIGNIFICANT WEATHER AND/OR OBSTRUCTION TO VISIBILITY.

MIZ047>049-052>055-059>063-066>070-074>076-081>083-211200-
SOUTHEAST LOWER MICHIGAN

CITY           SKY/WX    TMP DP  RH WIND       PRES   REMARKS
ADRIAN         CLOUDY    70  65  84 N6        30.00R HAZE
ALMA           PTCLDY    64  64  97 CALM      30.01S
ANN ARBOR      CLOUDY    71  70  96 NW8       29.98R
BAD AXE        CLEAR     63  62  96 CALM      30.00R
CARO           CLEAR     66  64  91 CALM      29.98S
DETROIT CITY   CLEAR     73  70  90 N3        29.98R
DETROIT        MOCLDY    73  70  90 N7        29.98R
FLINT          PTCLDY    68  66  93 W3        30.00R
GROSSE ILE     PTCLDY    73  70  91 N5        29.96R
HILLSDALE      FOG       64  64 100 CALM      30.01R VSB<1/4
HOWELL         FOG       65  65  99 CALM      30.01R VSB 1/2

CITY           SKY/WX    TMP DP  RH WIND       PRES   REMARKS
JACKSON        CLOUDY    66  65  96 CALM      30.01R FOG
LAMBERTVILLE     N/A     67  67  98 CALM      29.97R FOG
LANSING        MOCLDY    67  65  93 CALM      30.01R FOG
LAPEER         FOG       64  62  96 CALM      29.99S VSB 1/2
MASON          PTCLDY    64  64 100 NW3       30.01R FOG
MONROE         CLOUDY    69  69  98 CALM      29.96R FOG
MT. CLEMENS    CLEAR     71  71 100 NW5       29.96R
PONTIAC        MOCLDY    70  69  97 N5        29.99R
PORT HOPE        N/A     69  64  84 NW3       29.98R
PORT HURON     CLEAR     68  66  94 CALM      29.97S
TRI CITIES     PTCLDY    67  63  87 N5        30.00R
MIDLAND        FAIR      61  61 100 NW3       30.00R FOG
TROY           CLOUDY    72  69  89 CALM      30.00R
SAGINAW HB     CLEAR     64  63  94 NW6       29.99S
$$
MIZ043>046-050>051-056>058-064>065-071>073-077>080-211200-
SOUTHWEST LOWER MICHIGAN

CITY           SKY/WX    TMP DP  RH WIND       PRES   REMARKS
BATTLE CREEK   CLOUDY    66  65  96 CALM      30.02R
BENTON HARBOR  CLOUDY    66  63  90 NE6       30.00S FOG
BIG RAPIDS     CLOUDY    61  59  95 CALM      30.02S FOG
COLDWATER      FOG       67  67 100 CALM      30.01S VSB<1/4
FREMONT        FOG       63  63 100 CALM      30.01R VSB<1/4
HOLLAND        CLOUDY    62  60  93 S3        30.01S FOG
GRAND RAPIDS   CLOUDY    64  64 100 CALM      30.01R
IONIA          FAIR      67  65  96 NW3       30.01R
KALAMAZOO      MOCLDY    64  62  93 CALM      30.02R
LUDINGTON      CLOUDY    61  61 100 CALM      29.99S
MARSHALL       FOG       66  65  97 CALM      30.01R VSB 1/4
MOUNT PLEASANT CLOUDY    67  64  91 CALM      30.01R
MUSKEGON       MOCLDY    64  61  90 CALM      30.01R
SOUTH HAVEN    FOG       65  65  99 CALM      30.02R VSB 1
$$
MIZ016>042-211200-
NORTHERN LOWER MICHIGAN

CITY           SKY/WX    TMP DP  RH WIND       PRES   REMARKS
ALPENA         CLEAR     62  62 100 W3        29.99R
BEAVER ISLAND  CLEAR     57  57 100 CALM      29.98R FOG
BELLAIRE       CLEAR     58  56  95 CALM      30.00R FOG
CADILLAC       CLEAR     62  58  90 CALM      30.03S
CHARLEVOIX     CLEAR     63  63 100 CALM      30.01R
FRANKFORT      CLOUDY    64  64 100 CALM      30.00R
GAYLORD        CLEAR     61  57  87 W3        30.02R
GRAYLING       CLEAR     59  57  94 CALM      30.02R FOG
HARBOR SPRINGS CLEAR     60  60 100 CALM      29.98R
HOUGHTON LAKE  PTCLDY    57  55  93 CALM      30.03S
MANISTEE       CLOUDY    63  63 100 CALM      29.99R
OSCODA         MOCLDY    63  61  93 CALM      29.98R
PELLSTON       CLEAR     54  54 100 CALM      29.98R
ROGERS CITY    CLEAR     61  60  95 SW5       29.99R
TRAVERSE CITY  MOCLDY    64  62  93 SW3       29.98R
$$
MIZ007>008-015-211200-
EASTERN UPPER MICHIGAN

CITY           SKY/WX    TMP DP  RH WIND       PRES   REMARKS
KINROSS        CLEAR     58  57  97 W6        29.98R FOG
MACKINAC ISLAN CLEAR     62  62 100 W7        29.97R
NEWBERRY       CLEAR     57  56  97 CALM      29.97S FOG
S. S. MARIE    CLEAR     62  59  90 CALM      29.96R FOG
MUNISING         N/A     61  60  97 S7        29.95S
$$
MIZ004>006-011>014-085-211200-
CENTRAL UPPER MICHIGAN

CITY           SKY/WX    TMP DP  RH WIND       PRES   REMARKS
MANISTIQUE     CLEAR     55  52  90 CALM      29.97S FOG
ESCANABA       CLEAR     57  57 100 CALM      29.97S
MENOMINEE      CLEAR     63  61  94 SW3       29.99S FOG
SAWYER-GWINN   CLEAR     54  52  94 CALM      29.99S
$$
MIZ001>003-009>011-084-211200-
WESTERN UPPER MICHIGAN

CITY           SKY/WX    TMP DP  RH WIND       PRES   REMARKS
IRON MOUNTAIN  CLEAR     58  55  90 CALM      29.97F
HOUGHTON       PTCLDY    56  52  86 NW6       29.95F
COPPER HARBOR    N/A     59  52  77 W3        29.94S
IRONWOOD       PTCLDY    58  58 100 CALM      29.96F FOG
$$

ABBREVIATIONS USED IN REMARKS
   TC - TEMPERATURE IN CELSIUS
  WCI - WIND CHILL INDEX
   HX - HEAT INDEX
  VSB - VISIBILITY





USA.gov is the U.S. government's official web portal to all federal, state and local government web resources and services.